Home > Weather > Umm al-Quwain > Past weeks

Flag for United Arab Emirates Past Weather in Umm al-Quwain, Umm al-Quwain, United Arab Emirates — Yesterday and Last 2 Weeks

Now
95 °F

Clear.


Feels Like: 100 °F
Forecast: 91 / 99 °F
Wind: 5 mph from Northeast

Location: Sharjah International Airport

Current Time: Jun 30, 2016 at 12:15:44 AM

Latest Report: Jun 29, 2016 at 11:00 PM


Visibility: 10 mi

Pressure: 29.50 "Hg

Humidity: 41%

Dew Point: 68 °F

Location of Umm al-QuwainLocation

Past Weather in Umm al-Quwain — Graph

°F

Umm al-Quwain Temperature Yesterday

Maximum temperature yesterday: 111 °F (at 1:00 PM)
Minimum temperature yesterday: 88 °F (at 1:00 AM)
Average temperature yesterday: 99 °F

High & Low Weather Summary for the Past Weeks

 TemperatureHumidityPressure
High113 °F (Jun 22, 11:00 AM)84% (Jun 15, 6:00 AM)29.65 "Hg (Jun 15, 6:00 AM)
Low77 °F (Jun 22, 3:00 AM)11% (Jun 16, 12:00 PM)29.39 "Hg (Jun 27, 3:00 PM)
Average95 °F46%29.50 "Hg
* Reported Jun 14 11:00 PM — Jun 29 11:00 PM, Umm al-Quwain, Weather by CustomWeather, © 2016

Note: Actual official high and low records may vary slightly from our data, if they occured in-between our weather recording intervals... More about our weather records

Advertising

Umm al-Quwain Weather History for the Previous 24 Hours

Scroll right to see more
 ConditionsComfort  
Time TempWeatherWind HumidityBarometerVisibility
11:00 PM
Wed, Jun 29
95 °FClear.5 mph41%29.50 "Hg10 mi
10:00 PM97 °FClear.2 mph39%29.50 "Hg10 mi
9:00 PM99 °FClear.3 mph37%29.50 "Hg10 mi
8:00 PM100 °FClear.2 mph37%29.47 "Hg10 mi
7:00 PM102 °FSunny.8 mph35%29.47 "Hg10 mi
6:00 PM104 °FSunny.9 mph35%29.47 "Hg10 mi
5:00 PM106 °FSunny.13 mph34%29.47 "Hg10 mi
4:00 PM106 °FSunny.13 mph36%29.47 "Hg10 mi
3:00 PM106 °FSunny.13 mph38%29.47 "Hg10 mi
2:00 PM104 °FSunny.12 mph40%29.50 "Hg10 mi
1:00 PM111 °FSunny.6 mph22%29.50 "Hg10 mi
12:00 PM109 °FSunny.5 mph25%29.53 "Hg10 mi
11:00 AM108 °FSunny.7 mph26%29.53 "Hg10 mi
10:00 AM104 °FSunny.13 mph31%29.56 "Hg10 mi
9:00 AM102 °FSunny.15 mph35%29.56 "Hg10 mi
8:00 AM97 °FSunny.14 mph47%29.56 "Hg10 mi
7:00 AM91 °FSunny.13 mph59%29.53 "Hg10 mi
6:00 AM90 °FSunny.9 mph59%29.53 "Hg10 mi
5:00 AM90 °FClear.10 mph63%29.50 "Hg10 mi
4:00 AM91 °FClear.13 mph63%29.50 "Hg10 mi
3:00 AM91 °FClear.114 mph67%29.47 "Hg4 mi
2:00 AM90 °FClear.10 mph71%29.47 "Hg5 mi
1:00 AM88 °FClear.5 mph79%29.47 "Hg5 mi
12:00 AM91 °FClear.2 mph75%29.47 "Hg5 mi
Weather by CustomWeather, © 2016

See weather overviewHow to use our weather pages